#timestamp,LO_Frequency,Hit,StdDev 
1507636815.5,286047003.8,N
1507636835.4,286047004.6,N
1507636855.2,286047008.9,Y
1507636875.0,286047004.7,P
1507636875.9,286047004.7,P
1507636895.8,286047001.7,N
1507636915.6,286047004.3,Y
1507636935.4,286047001.0,P
1507636955.3,286047002.6,N
1507636975.1,286046996.5,P
1507636995.8,286046999.2,N
1507637015.7,286047002.7,N
1507637035.5,286047002.2,N
1507637055.3,286046998.1,N
1507637075.2,286046995.0,N
1507637095.9,286046992.4,N
1507637115.7,286046990.8,N
1507637135.6,286046987.3,Y
1507637155.4,286046989.1,P
1507637175.2,286046988.6,N
1507637195.1,286046991.1,N
1507637196.0,286046991.1,N
1507637215.8,286046989.7,N
1507637235.6,286046990.5,N
1507637255.5,286046993.8,N
1507637275.3,286046993.3,N
1507637295.1,286046990.4,Y
1507637315.9,286047001.1,P
1507637335.7,286047002.8,N
1507637355.5,286047004.2,N
1507637375.4,286046998.5,N
1507637395.2,286047002.3,N
1507637415.0,286046997.2,N
1507637415.9,286046997.2,N
1507637435.8,286046997.9,N
1507637455.6,286046997.7,N
1507637475.4,286046997.3,N
1507637495.2,286046997.6,N
1507637515.1,286046997.4,N
1507637516.0,286046997.4,N
1507637535.8,286047001.3,N
1507637555.6,286047002.5,N
1507637575.5,286047005.9,N
1507637595.3,286047006.0,N
1507637615.1,286047002.2,N
1507637635.9,286047000.4,N
1507637655.7,286046999.0,N
1507637675.5,286047002.3,N
1507637695.4,286046998.6,N
1507637715.2,286046997.3,N
1507637735.0,286047001.2,N
1507637735.9,286047001.2,N
1507637755.8,286047000.2,N
1507637775.6,286047003.7,N
1507637795.4,286047006.3,N
1507637815.3,286047007.7,N
1507637835.1,286047002.9,N
1507637855.8,286047004.3,N
1507637875.7,286047007.6,N
1507637895.5,286047008.6,N
1507637915.3,286047004.8,N
1507637935.2,286047004.5,N
1507637955.9,286047005.0,N
1507637975.7,286047001.4,N
1507637995.6,286047005.3,N
1507638015.4,286047001.3,N
1507638035.2,286047003.7,N
1507638055.0,286047005.5,N
1507638056.0,286047005.5,N
1507638075.8,286047003.6,N
1507638095.6,286047006.0,N
1507638115.4,286047003.3,N
1507638135.3,286047002.8,N
1507638155.1,286047003.5,N
1507638175.8,286047001.6,N
1507638195.7,286047005.4,N
1507638215.5,286047005.8,N
1507638235.3,286047007.4,N
1507638255.2,286047006.9,N
1507638275.9,286047009.0,Y
1507638295.7,286047003.0,P
1507638315.6,286047005.8,P
1507638335.4,286047005.5,P
1507638355.2,286047003.9,Y
1507638375.1,286046995.3,P
1507638376.0,286046995.3,N
1507638395.8,286046994.9,N
1507638415.6,286046995.3,N
1507638435.5,286046995.6,N
1507638455.3,286046998.3,N
1507638475.1,286046995.9,N
1507638495.9,286046997.0,N
1507638515.7,286046998.8,N
1507638535.5,286046996.9,N
1507638555.4,286046997.7,N
1507638575.2,286046995.9,N
1507638595.0,286046998.0,N
1507638595.9,286046998.0,N
1507638615.8,286046995.3,N
1507638635.6,286047001.1,N
1507638655.4,286046997.3,N
1507638675.3,286047000.5,N
1507638695.1,286047001.6,N
1507638696.0,286047001.6,N
1507638715.8,286047001.2,N
1507638735.6,286047001.6,N
1507638755.5,286047000.8,N
1507638775.3,286046998.2,N
1507638795.1,286046999.3,N
1507638815.9,286046995.8,N
1507638835.7,286046996.8,N
1507638855.5,286046994.9,N
1507638875.4,286046995.7,N
1507638895.2,286046990.3,Y
1507638915.0,286046995.0,P
1507638916.0,286046995.0,P
1507638935.8,286046998.8,N
1507638955.6,286046997.6,N
1507638975.4,286046997.2,N
1507638995.3,286046998.9,N
1507639015.1,286046998.6,N
1507639035.8,286047001.5,N
1507639055.7,286046998.1,N
1507639075.5,286047002.1,N
1507639095.3,286047002.2,N
1507639115.2,286046999.8,N
1507639135.9,286047000.6,N
1507639155.7,286047000.3,N
1507639175.6,286046996.7,N
1507639195.4,286046997.1,N
1507639215.2,286046998.1,N
1507639235.1,286047001.8,N
1507639236.0,286047001.8,N
1507639255.8,286047000.1,N
1507639275.6,286047002.4,N
1507639295.5,286047002.1,N
1507639315.3,286047000.9,N
1507639335.1,286047000.4,N
1507639355.9,286047003.5,N
1507639375.7,286047002.9,N
1507639395.5,286047007.6,Y
1507639415.4,286047005.7,P
1507639435.2,286047005.9,N
1507639455.0,286047004.9,N
1507639455.9,286047004.9,N
1507639475.8,286047005.0,N
1507639495.6,286047004.0,N
1507639515.4,286047001.5,N
1507639535.3,286047005.2,N
1507639555.1,286047005.1,N
1507639556.0,286047005.1,N
1507639575.8,286047004.9,N
1507639595.6,286047004.8,N
1507639615.5,286047000.1,N
1507639635.3,286047003.5,N
1507639655.1,286047004.1,N
1507639675.9,286047000.4,N
1507639695.7,286047000.7,N
1507639715.5,286047001.4,N
1507639735.4,286047004.5,N
1507639755.2,286047004.8,N
1507639775.0,286047001.3,N
1507639775.9,286047001.3,N
1507639795.8,286047001.3,N
1507639815.6,286047001.9,N
1507639835.4,286047003.8,N
1507639855.3,286047004.2,N
1507639875.1,286047005.5,N
1507639876.0,286047005.5,N
1507639895.8,286047007.5,Y
1507639915.7,286047000.6,P
1507639935.5,286046996.9,N
1507639955.3,286046997.4,N
1507639975.2,286046998.1,N
1507639995.9,286046997.0,N
1507640015.7,286046993.7,N
1507640035.6,286046995.6,N
1507640055.4,286046995.8,N
1507640075.2,286046994.6,N
1507640095.1,286046993.0,N
1507640096.0,286046993.0,N
1507640115.8,286046993.0,N
1507640135.6,286046996.3,N
1507640155.5,286046995.6,N
1507640175.3,286046993.3,N
1507640195.1,286047001.2,N
1507640215.8,286047001.7,N
1507640235.7,286047002.0,N
1507640255.5,286047000.0,N
1507640275.3,286046996.5,N
1507640295.2,286046998.4,N
1507640315.0,286046998.6,N
1507640315.9,286046998.6,N
1507640335.7,286046997.9,N
1507640355.6,286046990.9,Y
1507640375.4,286046995.5,P
1507640395.2,286046994.4,P
